Live-Position
3D-Globus wird geladen...
Über Starlink 34025
Group: 3 satellites
Beschreibung wird geladen...
Nächste Überflüge
Passes for default location (London). Set your location on the main map for personalized predictions.
Höhenverlauf
Loading altitude history...
No altitude history available
Zweizeiliger Elementsatz
1 63824U 25092W 26126.26142893 .00009444 00000-0 35243-3 0 9994
2 63824 43.0006 207.0496 0001353 258.0072 102.0628 15.27565271 57363
Epoch: 6. Mai 2026 •
Age: 9 hours
Aktueller Status
Höhe 483.6 km
Geschwindigkeit 7.63 km/s
Subsatellitenpunkt -6.54°S,
56.64°W
Startdatum 4. Mai 2025
Alter 1 years
Typ internet
Startgruppe
Falcon 9 •
Group 6-84 •
29 satellites
Starlink 33909
63804
Starlink 34029 63805
Starlink 34102 63806
Starlink 34109 63807
Starlink 34091 63808
Starlink 34095 63809
Starlink 34127 63810
Starlink 34110 63811
Starlink 34101 63812
Starlink 34065 63813
Starlink 34057 63814
Starlink 34060 63815
Starlink 34048 63816
Starlink 33959 63817
Starlink 34058 63818
Starlink 34055 63819
Starlink 33794 63820
Starlink 34047 63821
Starlink 34094 63822
Starlink 34043 63823
...and 8 more
Technische Details
Klassifizierung Payload
Masse 575.00 kg
Trockenmasse 530.00 kg
Gesamtmasse 575.00 kg
Länge 0.30 m
Durchmesser 4.10 m
Spannweite 29.00 m
Form Box + pan
Hersteller SPXS
Bus-Typ Starlink V2MO
Phasenstatus In Orbit
Besitzer/Staat SPXS/US
Most Searched
Loading...